FLOCK 3P-62

Last updated on Wed Feb 14 2018 16:20:33 GMT+0000 (Coordinated Universal Time)

1 42036U 17008CS 18045.17499568 .00002427 00000-0 10254-3 0 9998 2 42036 97.4659 110.8472 0009566 90.2687 269.9646 15.24185040 54548
UTC large
Height (km)
Speed (km/s)
/
Latitude / Longitude
Inclination (degrees)
Orbital Period (minutes)
Azimuth
Elevation
Range (km)
Doppler Factor

Next 0 passes for location: London (51.5072 / 0.1276)

Sorry there are no passes over London.